This is the latest recevied weather packets stored in our database for station/object N8SHA. If no packets are shown the sender has not sent any weather packets the latest 10 day(s).
| Time | Temp. | Humidity | Pressure | Rain* | Wind** | Luminosity | Snow |
|---|---|---|---|---|---|---|---|
| 1777665349 | 7.78° C | 57% | 1014.1 hPa | 0 mm | - | 213 W/m² | - |
| 1777665044 | 7.78° C | 57% | 1014.3 hPa | 0 mm | - | 176 W/m² | - |
| 1777664739 | 7.78° C | 56% | 1014.3 hPa | 0 mm | - | 141 W/m² | - |
| 1777664436 | 7.78° C | 56% | 1014.2 hPa | 0 mm | - | 167 W/m² | - |
| 1777664133 | 8.33° C | 58% | 1014.1 hPa | 0 mm | - | 247 W/m² | - |
| 1777663832 | 8.33° C | 55% | 1014.2 hPa | 0 mm | - | 384 W/m² | - |
| 1777663528 | 8.89° C | 59% | 1014.2 hPa | 0 mm | - | 404 W/m² | - |
| 1777663226 | 8.33° C | 58% | 1014.1 hPa | 0 mm | - | 513 W/m² | - |
| 1777662923 | 7.78° C | 59% | 1014.2 hPa | 0 mm | - | 296 W/m² | - |
| 1777662620 | 7.78° C | 57% | 1014.2 hPa | 0 mm | - | 164 W/m² | - |
| 1777662315 | 7.78° C | 58% | 1013.9 hPa | 0 mm | - | 205 W/m² | - |
| 1777662011 | 8.33° C | 56% | 1014 hPa | 0 mm | - | 304 W/m² | - |
| 1777661708 | 8.33° C | 56% | 1013.9 hPa | 0 mm | - | 356 W/m² | - |
| 1777661403 | 8.33° C | 58% | 1014.1 hPa | 0 mm | - | 329 W/m² | - |
| 1777661100 | 8.89° C | 58% | 1014 hPa | 0 mm | - | 404 W/m² | - |
| 1777660795 | 8.33° C | 58% | 1013.9 hPa | 0 mm | - | 406 W/m² | - |
| 1777660492 | 7.78° C | 57% | 1014 hPa | 0 mm | - | 173 W/m² | - |
| 1777660188 | 8.33° C | 58% | 1013.7 hPa | 0 mm | - | 206 W/m² | - |
| 1777659885 | 7.78° C | 56% | 1013.9 hPa | 0 mm | - | 274 W/m² | - |
| 1777659582 | 8.33° C | 61% | 1013.7 hPa | 0 mm | - | 354 W/m² | - |
| 1777659279 | 8.33° C | 60% | 1013.8 hPa | 0 mm | - | 263 W/m² | - |
| 1777658976 | 8.89° C | 62% | 1013.7 hPa | 0 mm | - | 282 W/m² | - |
| 1777658668 | 7.78° C | 64% | 1013.8 hPa | 0 mm | - | 863 W/m² | - |
| 1777658364 | 7.78° C | 63% | 1013.8 hPa | 0 mm | - | 298 W/m² | - |
| 1777658061 | 7.22° C | 64% | 1013.6 hPa | 0 mm | - | 185 W/m² | - |
* Rain latest hour (hover to see other rain measurements)
** Current wind speed in m/s (hover to see current wind gust speed)